Погода в Белграде

Сербия     44°49′01″N   20°27′43″E
темп.,
°C
ветер,
м/с
пор.,
м/с
влажн.,
%
обл.,
%
осадки,
мм/ч
давл.,
гПа
погр.,
м
24 мая, вт
вт2423:00+16вюв385966 0.0 1011215
02:00+15вюв255931 0.0 1009119
05:00+15вюв246491 0.3 100987
08:00+18юв476996 0.7 1010326
11:00+24юв555798 0.0 1009756
14:00+28юв334579 0.0 10081440
17:00+29вюв32445 0.0 10071333
20:00+22вюв511615 0.2 1008268
25 мая, ср
ср2523:00+18вюв61582100 1.5 1010370
02:00+17вюв41089100 2.0 1011251
05:00+16вюв3590100 0.0 1011118
08:00+20ююв2271100 0.0 1013197
11:00+27юз124929 0.0 1013888
14:00+30з24415 0.0 10131759
17:00+31сз36355 0.0 10121581
20:00+25з22505 0.0 101430
26 мая, чт
чт2623:00+20с3988100 2.3 1017322
02:00+17зсз2496100 5.4 1020197
05:00+16зсз2697100 0.6 1021267
08:00+18з347914 0.6 1023473
11:00+23сз33495 0.0 10231034
14:00+26ссз23395 0.0 10221444
17:00+26с22385 0.0 10201487
20:00+22св115348 0.0 102015
27 мая, пт
пт2723:00+19вюв23651 0.0 102186
02:00+18юв22695 0.0 102139
05:00+17юв11715 0.0 102013
08:00+22юв23565 0.0 1020320
11:00+26вюв3342100 0.0 10181049
14:00+28юв223970 0.0 10161399
17:00+29зсз124188 0.0 10141361
20:00+25юз2255100 0.0 101328
28 мая, сб
сб2823:00+20ююз227129 0.4 101360
02:00+17з3593100 4.7 1014159
05:00+17с3796100 2.2 1015536
08:00+15ссз3683100 2.4 1017411
11:00+17с3856100 0.0 1018710
14:00+18с573899 0.0 10181199
17:00+18с473923 0.0 10181038
20:00+15ссз245172 0.0 1019328